Weather in Yavlenka

Kazakhstan     54˚20′47″N   68˚27′29″E
temp.,
°C
wind,
m/s
gust,
m/s
humid.,
%
clouds,
%
prec.,
mm/h
press.,
hPa
HPBL,
m
3 december, thu
thu300:00−17˚ese35950 0.0 104389
03:00−17˚e34930 0.0 104264
06:00−18˚e35931 0.0 104291
09:00−18˚e359465 0.0 104189
12:00−17˚e369250 0.0 1040189
15:00−16˚ene359262 0.0 1039163
18:00−17˚e349371 0.0 103978
21:00−18˚e339347 0.0 103947
4 december, fri
fri400:00−19˚e239324 0.0 103927
03:00−19˚e22940 0.0 103820
06:00−19˚e11930 0.0 103820
09:00−19˚nne119320 0.0 103820
12:00−17˚wsw009049 0.0 103823
15:00−16˚wnw11890 0.0 103829
18:00−16˚nw128936 0.0 103820
21:00−16˚nnw129096 0.0 103820
5 december, sat
sat500:00−17˚n129594 0.0 103820
03:00−18˚nne129768 0.0 103920
06:00−18˚nne229766 0.0 103920
09:00−18˚ene129880 0.0 104020
12:00−17˚ene129580 0.0 104148
15:00−16˚e119425 0.0 104140
18:00−18˚e119612 0.0 104120
21:00−19˚se11960 0.0 104120
6 december, sun
sun600:00−19˚s11960 0.0 104220
03:00−19˚ssw11940 0.0 104220
06:00−18˚sw12902 0.0 104120
09:00−18˚sw118896 0.0 104120
12:00−16˚ssw228787 0.0 104148
15:00−14˚sw2288100 0.0 104143
18:00−16˚wsw128791 0.0 104020
21:00−17˚sw22885 0.0 103920
7 december, mon
mon700:00−17˚sw23883 0.0 103921
03:00−17˚wsw33890 0.0 103725
06:00−18˚sw34900 0.0 103645
09:00−18˚sw34910 0.0 103568
12:00−16˚sw47900 0.0 1035181
15:00−15˚sw48900 0.0 1034235
18:00−16˚wsw48934 0.0 1033185
21:00−17˚wsw499413 0.0 1033182